Tracking 19634 objects as of 22-May-2019
HD Live streaming from Space Station
objects crossing your sky now

HARBINGER

Track HARBINGER now!
10-day predictions


NORAD ID: 44229
Int'l Code: 2019-026E
Perigee: 506.5 km
Apogee: 516.8 km
Inclination: 40.0 °
Period: 94.7 minutes
Semi major axis: 6882 km
RCS: Unknown
Launch date: May 5, 2019
Source: United States (US)
Launch site: Rocket Lab Launch Complex (RLLC)
aabbcc
Your satellite tracking list
Your tracking list is empty




NASA's NSSDC Master Catalog

Two Line Element Set (TLE):
1 44229U 19026E   19141.95416618 +.00000355 +00000-0 +24071-4 0  9996
2 44229 040.0194 137.7506 0007458 020.6985 339.4116 15.20446979002538
Source of the keplerian elements: AFSPC